Vertical_Velocity
-8 48 11 5 -1 1 2 -2 -1 -6 -2 14 7 7 6 6 -0 0 -1 -2 1 1 2 2 1 1 1 1 0 2 0 -4 -2 -2 -3 1 -0 -0 -2 -2 -0 -2 -4 -1 -2
2 15 8 14 12 3 0 3 0 6 -1 -6 2 4 8 -2 0 2 -1 -0 -2 1 1 1 2 2 0 1 -0 1 -1 1 -0 -2 -4 -1 -0 0 -1 -1 -2 -1 -2 0 2
-2 6 16 14 6 3 7 9 -1 -2 0 -3 9 -9 20 30 12 2 -3 -0 -2 -2 -1 2 1 -2 -1 -2 -1 -2 -2 1 0 -1 -2 -3 -1 -2 -2 0 2 -0 -0 -4 -4
11 5 8 15 4 10 13 11 4 1 -1 -5 6 17 -3 1 5 0 -5 -4 0 -0 0 4 2 2 -0 -1 -1 0 0 -2 1 -2 0 -3 -5 -6 -2 -1 1 -1 -5 -1 -3
5 -3 -12 9 12 -3 0 7 11 5 -5 -2 -3 -7 4 13 1 2 0 3 1 2 1 -1 1 0 -1 -3 -1 -1 -0 -3 -1 -3 -3 -5 1 -6 -3 3 -8 -0 -1 -1 0
1 1 1 -0 3 3 -2 -6 3 5 -4 -2 -3 0 8 12 10 -3 35 1 -0 1 0 -2 -1 2 -1 -2 0 -1 -1 -3 -1 0 -3 -4 -3 -5 17 -4 -3 -5 -2 -3 -2
1 -3 -13 0 -3 0 -5 -5 -6 -1 -0 0 1 30 5 -2 -2 2 9 -0 0 1 -1 -0 -1 -1 1 1 -1 -1 -2 -2 -0 -3 -3 -6 -5 -3 -6 -4 -2 -3 -4 -3 -4
3 -4 -9 -4 3 -2 -0 -3 0 -2 -1 -3 13 15 7 -0 -8 31 0 0 -2 0 -2 -4 -2 0 -0 -1 -0 -1 -1 -1 -2 -2 -2 -1 -7 5 -4 -3 1 -3 -3 -5 0
-1 4 -8 1 1 3 6 7 5 -1 -0 -3 -1 8 -8 12 13 10 2 -1 -2 -1 -4 -2 1 1 -0 -1 -3 -3 -2 -2 -4 -4 -2 -2 -4 3 2 -10 -2 -4 -1 -3 -1
0 -2 -2 1 1 -4 2 0 -5 5 -5 -3 -10 3 9 16 6 -1 -2 1 -1 -2 -2 -5 -2 -1 -2 -3 -3 -2 -1 -2 -1 -2 -1 -3 -10 2 -3 -13 -3 -1 -1 -4 -4
-2 -0 1 1 -3 0 -5 -6 -6 1 -7 -1 -3 2 -6 -2 6 7 -2 -2 -0 -3 -0 -2 -5 -3 -1 0 -1 -1 -1 -2 -3 1 -7 -4 -9 2 3 -11 -7 1 -3 -3 -5
1 -1 1 3 -7 -5 5 4 -3 -0 -3 14 3 1 5 -1 -6 3 1 -2 -1 -1 1 -2 -3 -2 -1 1 -1 -2 -2 1 -7 0 -3 -7 -18 -4 -4 1 -5 -6 1 -3 -3
1 -1 2 4 1 -5 2 -11 -2 4 -15 10 21 11 10 0 -4 -3 -3 -3 -2 -2 -1 -1 -2 -2 0 -1 -3 -2 -4 -0 -2 -7 -3 -4 -21 -8 -2 -2 -1 0 -3 -1 -0
4 -4 -5 -7 2 -4 -10 -13 -6 2 -5 7 -2 5 5 0 -1 -0 -2 -1 -1 -1 -0 -0 -1 -2 -1 -1 -4 -3 -2 0 -0 3 -3 1 -11 -7 -1 2 3 3 -5 -3 -2
0 1 -3 6 -3 -3 -1 -0 2 1 -10 -2 4 1 -0 2 1 1 -0 0 -1 -1 -1 1 1 -2 -2 -3 -3 -1 -1 -0 -0 -3 6 -0 10 -5 -0 -7 -7 -9 -4 -3 -1
1 2 -2 0 -2 5 3 1 -0 -3 3 2 -1 -2 0 -1 0 0 -4 -3 0 0 -2 -2 -2 -2 -2 -0 -2 -0 -1 2 3 4 4 -2 -1 -0 -3 -3 -3 -2 1 -7 -1
-1 -1 1 -1 -3 -2 4 -1 -5 -14 2 -0 0 1 2 -1 -1 -2 1 -0 -2 -6 -3 -5 -3 2 4 2 3 -2 3 -3 -4 2 -6 -2 9 0 -1 5 -1 4 -1 -2 -1
-1 -2 -1 -1 -3 -5 -3 1 -22 5 2 1 0 3 -1 -2 -1 -0 -1 0 2 -1 4 1 -0 3 -3 -1 -1 1 -0 -0 -1 -1 -3 3 -1 -4 -1 7 4 1 6 4 4
-4 -2 -0 -1 -1 -4 1 -33 -1 -3 -4 -4 -3 -3 -1 2 0 -0 0 1 -1 -1 -2 -3 -0 -0 1 2 2 1 -1 2 2 0 4 -0 -0 -1 -1 2 -1 0 -1 0 -4
3 -2 -1 -6 -1 0 -1 -23 -0 0 2 2 1 0 -0 -1 0 -2 -5 -5 -2 -2 -1 -2 -3 1 2 0 -1 3 1 4 2 0 -1 -1 -0 -1 -4 -3 2 5 2 9 2
-2 -7 -8 -4 4 6 -23 -11 -3 -0 -4 -4 -4 -3 -2 -1 -1 -1 -1 0 0 -0 -2 -3 -2 -2 -1 0 -0 -1 -2 1 1 1 2 0 0 1 2 2 6 1 0 -0 2
-3 -8 -1 -6 2 -10 -1 -5 3 -1 1 0 0 -0 0 -0 -0 -2 -0 -2 -1 0 -1 -2 -2 -4 1 1 0 2 -2 1 1 -0 -0 -0 -0 -2 -1 -3 -1 -4 -4 -0 -7
-6 -3 -4 2 -13 -4 -3 -4 1 2 -2 -1 1 -0 -0 1 1 0 0 1 1 1 1 -1 0 -3 -3 1 -0 1 0 0 0 1 -0 -1 -1 -1 -4 -7 -12 -2 -0 -2 -3
-3 -7 -1 3 -5 -11 -4 -4 -5 -1 2 -0 -1 1 1 -2 -2 -2 0 -1 2 0 1 2 0 -0 -3 -2 -1 1 0 -1 -0 1 2 -3 -1 -3 -5 -3 -0 -0 -1 -1 1
-0 -3 -6 2 1 -1 -7 -2 -3 -1 -5 -1 -0 -2 -2 -1 -1 0 -1 -1 2 -3 -2 -0 -0 -0 3 0 -0 0 1 -2 -3 -0 0 -4 -4 -5 -6 -3 -4 -3 -0 -1 -0
1 -1 -3 -5 0 2 -1 -5 -3 1 -3 -0 -3 1 1 -0 -2 -4 -3 -2 -4 -3 -2 -0 -0 -1 -4 0 1 -1 -2 1 1 1 -0 2 -2 -5 -2 -2 -2 1 -0 -1 -3
3 -1 -2 -2 -3 -2 1 2 0 -3 -1 -2 -5 -2 -2 -1 -1 -0 2 0 1 1 -1 -1 -0 1 -2 -1 0 -3 -0 -3 -2 -2 2 -6 -3 -2 -4 -4 -2 -0 -1 2 3
Height
3010 3009 3013 3017 3019 3022 3024 3027 3028 3034 3041 3046 3051 3057 3057 3063 3069 3074 3075 3078 3081 3085 3088 3091 3093 3097 3099 3101 3104 3106 3108 3109 3111 3113 3115 3115 3116 3117 3118 3119 3120 3121 3124 3128 3129
3003 3004 3005 3009 3012 3016 3019 3022 3025 3027 3034 3040 3044 3050 3056 3061 3066 3070 3073 3076 3078 3082 3086 3088 3090 3093 3096 3099 3101 3102 3104 3107 3108 3110 3111 3113 3113 3112 3113 3114 3116 3117 3119 3122 3123
3000 2998 2998 3000 3006 3011 3015 3017 3021 3024 3026 3032 3035 3043 3049 3055 3060 3064 3069 3073 3076 3080 3083 3085 3088 3090 3093 3096 3098 3099 3100 3104 3105 3106 3108 3109 3109 3108 3109 3109 3113 3113 3113 3113 3115
2996 2993 2995 2997 3002 3005 3007 3013 3017 3020 3022 3027 3034 3041 3047 3053 3057 3060 3065 3070 3074 3077 3080 3082 3085 3088 3091 3093 3096 3097 3098 3101 3102 3103 3103 3104 3105 3104 3102 3106 3107 3105 3106 3106 3108
2998 2996 2994 2994 2995 3001 3005 3008 3014 3018 3021 3023 3030 3036 3043 3048 3053 3058 3062 3068 3071 3075 3077 3080 3083 3085 3088 3091 3093 3094 3096 3098 3099 3099 3099 3100 3101 3098 3096 3102 3098 3099 3099 3100 3100
2999 2997 2995 2993 2995 2999 3004 3007 3010 3016 3020 3021 3027 3033 3040 3046 3050 3055 3059 3064 3069 3073 3075 3078 3081 3084 3086 3089 3090 3091 3093 3094 3096 3096 3095 3094 3095 3092 3097 3092 3093 3092 3093 3092 3091
3000 2995 2992 2990 2992 2997 3003 3008 3011 3015 3019 3021 3026 3030 3037 3044 3047 3055 3059 3063 3068 3071 3074 3077 3080 3083 3085 3086 3087 3089 3091 3091 3091 3092 3090 3088 3087 3088 3087 3087 3088 3088 3086 3085 3085
2999 2994 2991 2988 2988 2995 3000 3006 3013 3015 3019 3023 3026 3029 3038 3041 3047 3052 3058 3063 3067 3071 3074 3076 3079 3081 3083 3084 3085 3087 3088 3087 3088 3088 3087 3085 3079 3085 3084 3083 3080 3081 3080 3079 3079
3004 2998 2994 2991 2991 2997 3002 3007 3012 3015 3019 3022 3028 3032 3039 3043 3047 3052 3058 3063 3068 3071 3073 3076 3078 3080 3081 3082 3084 3084 3084 3085 3086 3085 3083 3080 3073 3078 3080 3077 3074 3073 3072 3072 3070
3008 3004 2999 2996 2998 3000 3003 3009 3014 3018 3021 3024 3029 3036 3040 3043 3048 3052 3059 3063 3066 3070 3074 3076 3077 3078 3079 3080 3081 3081 3083 3082 3084 3082 3079 3075 3066 3070 3074 3070 3065 3064 3062 3061 3060
3012 3009 3005 3003 3004 3007 3011 3015 3020 3020 3023 3027 3031 3036 3040 3044 3049 3054 3058 3062 3067 3070 3073 3074 3076 3078 3078 3078 3078 3079 3080 3079 3080 3079 3073 3070 3062 3063 3065 3063 3058 3055 3053 3051 3051
3017 3012 3010 3007 3008 3010 3013 3016 3019 3022 3023 3028 3032 3037 3042 3046 3050 3055 3060 3064 3068 3070 3072 3074 3074 3077 3077 3077 3077 3077 3076 3078 3077 3075 3071 3067 3057 3057 3056 3055 3050 3048 3045 3043 3043
3024 3019 3016 3013 3011 3014 3017 3020 3024 3025 3027 3034 3037 3040 3046 3051 3054 3057 3062 3065 3068 3070 3071 3072 3074 3075 3076 3076 3076 3076 3075 3075 3075 3073 3070 3064 3052 3052 3052 3049 3045 3042 3038 3036 3033
3032 3028 3024 3023 3025 3023 3026 3028 3028 3030 3034 3045 3046 3049 3053 3055 3059 3061 3064 3068 3069 3070 3071 3073 3073 3074 3075 3075 3075 3074 3072 3072 3072 3073 3070 3067 3058 3049 3047 3045 3041 3036 3031 3026 3025
3043 3039 3036 3036 3034 3036 3035 3033 3033 3033 3041 3055 3054 3055 3056 3060 3063 3063 3065 3067 3069 3070 3074 3074 3073 3073 3074 3074 3075 3074 3071 3070 3069 3068 3066 3061 3062 3045 3042 3038 3035 3031 3026 3020 3017
3051 3048 3046 3044 3042 3040 3038 3037 3037 3039 3052 3060 3059 3060 3061 3061 3063 3066 3067 3070 3070 3071 3072 3074 3074 3073 3074 3074 3072 3071 3069 3066 3064 3063 3062 3055 3056 3044 3041 3038 3033 3029 3025 3019 3015
3054 3052 3050 3047 3045 3042 3040 3040 3041 3047 3063 3066 3064 3064 3064 3066 3067 3069 3069 3070 3070 3072 3073 3073 3072 3072 3071 3071 3070 3069 3067 3064 3064 3062 3057 3053 3053 3046 3042 3037 3031 3027 3023 3018 3013
3057 3055 3052 3048 3046 3045 3044 3043 3045 3060 3061 3066 3067 3068 3068 3069 3070 3070 3071 3071 3070 3071 3072 3070 3072 3070 3069 3068 3068 3067 3067 3067 3066 3061 3055 3052 3049 3046 3040 3035 3030 3026 3021 3016 3011
3061 3059 3055 3051 3048 3047 3050 3044 3061 3064 3067 3068 3070 3071 3070 3071 3071 3071 3071 3071 3072 3073 3074 3072 3070 3069 3067 3067 3068 3065 3065 3065 3062 3058 3056 3050 3047 3044 3040 3034 3031 3026 3019 3013 3012
3067 3064 3061 3060 3057 3057 3051 3055 3065 3068 3069 3070 3070 3072 3073 3073 3073 3072 3073 3073 3073 3073 3073 3073 3070 3068 3067 3067 3066 3064 3065 3064 3062 3059 3054 3047 3048 3045 3040 3036 3032 3026 3022 3016 3014
3073 3068 3069 3069 3068 3064 3056 3065 3070 3071 3071 3072 3072 3073 3074 3073 3073 3074 3075 3074 3073 3073 3073 3072 3073 3070 3068 3066 3065 3065 3063 3062 3062 3059 3057 3054 3052 3048 3043 3040 3035 3030 3025 3021 3017
3076 3073 3074 3073 3075 3067 3068 3069 3072 3074 3073 3073 3074 3074 3074 3074 3074 3074 3075 3074 3073 3073 3072 3072 3071 3068 3067 3066 3066 3064 3063 3062 3061 3059 3057 3056 3057 3051 3047 3043 3039 3034 3031 3028 3025
3081 3078 3077 3077 3076 3074 3075 3075 3075 3075 3075 3075 3075 3075 3075 3074 3076 3075 3075 3075 3074 3073 3072 3072 3070 3067 3065 3067 3065 3064 3061 3059 3059 3058 3054 3054 3056 3053 3050 3047 3042 3039 3036 3035 3033
3084 3083 3081 3080 3079 3079 3079 3079 3079 3079 3078 3077 3077 3077 3076 3076 3076 3076 3076 3075 3074 3074 3072 3071 3069 3068 3068 3066 3064 3061 3059 3055 3055 3055 3052 3051 3051 3052 3049 3047 3045 3043 3041 3039 3037
3085 3085 3085 3083 3082 3081 3081 3082 3082 3082 3081 3081 3080 3079 3079 3078 3078 3078 3077 3075 3075 3074 3073 3071 3069 3067 3065 3063 3061 3058 3056 3053 3051 3051 3050 3049 3050 3050 3049 3048 3046 3045 3043 3042 3040
3086 3085 3085 3084 3083 3083 3083 3082 3083 3082 3082 3083 3082 3081 3080 3079 3079 3077 3076 3075 3074 3073 3071 3070 3068 3065 3061 3060 3059 3056 3054 3052 3050 3049 3048 3048 3048 3048 3048 3047 3045 3044 3043 3043 3042
3085 3084 3085 3084 3084 3083 3084 3083 3084 3083 3084 3083 3082 3081 3080 3079 3077 3075 3074 3073 3071 3070 3069 3068 3066 3064 3058 3057 3055 3053 3050 3049 3049 3047 3047 3046 3047 3047 3047 3047 3046 3045 3044 3044 3042